Regional Weather Roundup
Issued by NWS

Home | Current Version | Previous Version | Graphics & Text | Print | Product List | Glossary On
Versions: 1 2 3 4 5 6 7 8 9 10 11 12 13 14 15 16 17 18 19 20 21 22 23 24 25 26 27 28 29 30 31 32 33 34 35 36 37 38 39 40 41 42 43 44 45 46 47 48 49 50
000
ASUS43 KIND 040509
RWRIN

WEATHER ROUNDUP FOR INDIANA
NATIONAL WEATHER SERVICE INDIANAPOLIS IN
1200 AM EST SUN DEC 04 2016

NOTE: "FAIR" INDICATES FEW OR NO CLOUDS BELOW 12,000 FEET WITH NO
SIGNIFICANT WEATHER AND/OR OBSTRUCTIONS TO VISIBILITY.

* - STATION DOES NOT REPORT WEATHER SUCH AS PRECIPITATION OR FOG.

+ - STATION NOT QUALITY CONTROLLED BY THE NATIONAL WEATHER SERVICE.
    USE DATA WITH CAUTION...ESPECIALLY DEWPOINT AND RELATIVE
    HUMIDITY OBSERVATIONS.

INZ001>003-010>013-019-020-040600-
NORTHWEST INDIANA

CITY           SKY/WX    TMP DP  RH WIND       PRES   REMARKS
GARY /AIRPORT/ CLOUDY    32  28  83 CALM      30.30R
KNOX *+        CLOUDY    32  14  47 CALM      30.28F
LA PORTE +     CLOUDY    33  33  99 CALM      30.28S
MICHIGAN CITY+ CLOUDY    32  27  80 S3        30.29S
MONTICELLO +   CLOUDY    33  23  67 CALM      30.28S
RENSSELAER +   CLOUDY    32  30  93 CALM      30.29F
VALPARAISO     CLOUDY    32  25  75 S3        30.29R

$$

LMZ046-743>745-040600-
SOUTHERN LAKE MICHIGAN

STATION/POSITION TIME  TEMP    WIND        PRES    WAVE
                       AIR SEA DIR/SP/G            HT
                 (UTC) (F)     (DEG/KT/KT) (MB)    (FT)
BURNS HARBOR     0440   33     190/  8/ 10 1026.1S
MICHIGAN CITY    0440   33     170/  9/ 11   N/A

$$

INZ004-005-014>016-021>024-040600-
NORTH CENTRAL INDIANA

CITY           SKY/WX    TMP DP  RH WIND       PRES   REMARKS
GOSHEN         CLOUDY    32  26  78 S3        30.28S
LOGANSPORT +   CLOUDY    32  28  86 CALM      30.29S
PERU/GRISSOM   CLOUDY    32  27  81 N5        30.26F WCI  27
ROCHESTER +    CLOUDY    32  32 100 CALM      30.29S
SOUTH BEND     CLOUDY    32  26  78 SW3       30.29S
WARSAW +       CLOUDY    32  23  69 CALM      30.28S

$$

INZ006>009-017-018-025>027-040600-
NORTHEAST INDIANA

CITY           SKY/WX    TMP DP  RH WIND       PRES   REMARKS
ANGOLA *+      CLOUDY    34  28  80 CALM      30.27S
AUBURN +       CLOUDY    32  28  86 CALM      30.29R
FORT WAYNE     CLOUDY    32  27  81 CALM      30.29R
HUNTINGTON +   CLOUDY    32  27  81 CALM      30.29R
KENDALLVILLE + CLOUDY    32  28  83 W3        30.28R

$$

INZ028-029-035-036-043>045-051>053-040600-
WEST CENTRAL INDIANA

CITY           SKY/WX    TMP DP  RH WIND       PRES   REMARKS
CRAWFORDSVL +  CLOUDY    30  28  92 CALM      30.28S
GREENCASTLE +  CLOUDY    32  32 100 CALM      30.28F
LAFAYETTE      CLOUDY    33  29  85 CALM      30.29R
TERRE HAUTE    CLOUDY    34  29  82 E3        30.29S

$$

INZ030>032-037>040-046>048-054>057-064-065-040600-
CENTRAL INDIANA

CITY           SKY/WX    TMP DP  RH WIND       PRES   REMARKS
CP ATTERBURY + PTCLDY    30  30 100 CALM      30.29S
FISHERS *+     CLOUDY    28  28 100 CALM      30.29R
FRANKFORT +    CLOUDY    34  30  84 CALM      30.29S
GREENWOOD *+   PTCLDY    32  29  90 CALM      30.28R
INDIANAPOLIS   CLOUDY    33  27  78 CALM      30.28S
-EAGLE CREEK   PTCLDY    33  27  78 CALM      30.28R
KOKOMO +       CLOUDY    32  28  85 N5        30.29S WCI  27
MARION +       PTCLDY    32  28  87 CALM      30.28S
MT COMFORT *+  PTCLDY    30  28  93 CALM      30.28R
SHELBYVILLE    PTCLDY    31  27  85 CALM      30.27F
ZIONSVILLE +   CLOUDY    30  28  93 CALM      30.28S

$$

INZ033-034-041-042-049-050-058-059-040600-
EAST CENTRAL INDIANA

CITY           SKY/WX    TMP DP  RH WIND       PRES   REMARKS
MUNCIE         MOCLDY    32  28  85 CALM      30.28R

$$

INZ060-061-067>069-081>083-085>088-040600-
SOUTHWEST INDIANA

CITY           SKY/WX    TMP DP  RH WIND       PRES   REMARKS
EVANSVILLE     CLOUDY    40  31  70 NE5       30.25F
HUNTINGBURG *+ PTCLDY    37  32  81 NE5       30.26S
WASHINGTON +   CLOUDY    37  32  84 CALM      30.26F

$$

INZ062-063-066-070>080-084-089>092-040600-
SOUTH CENTRAL AND SOUTHEAST INDIANA

CITY           SKY/WX    TMP DP  RH WIND       PRES   REMARKS
BLOOMINGTON    CLOUDY    34  28  79 N3        30.27S
MADISON *+     CLOUDY    36  30  80 CALM      30.28F
NORTH VERNON + CLOUDY    36  36 100 CALM      30.28F
SEYMOUR +      CLOUDY    36  30  80 CALM      30.28F

$$





USA.gov is the U.S. government's official web portal to all federal, state and local government web resources and services.